Location: Boiro
(42.6475°N, 8.8834°W)
Time: 17:24:19
(UTC+01:00)

Transit 2A - Pass Details

Date: 05 December 2021
Orbit: 591 x 967 km, 66.7° (Epoch: 20 January)

Event Time Altitude Azimuth Distance (km) Brightness Sun altitude
Rises 04:12:42 0° 287° (WNW) 3,475 - -50.0°
Reaches altitude 10° 04:17:57 10° 326° (NW) 2,629 - -49.1°
Maximum altitude 04:19:05 11° 337° (NNW) 2,609 - -48.9°
Drops below altitude 10° 04:20:15 10° 348° (NNW) 2,660 - -48.7°
Exits shadow 04:24:29 - 19° (NNE) 3,347 9.6 -47.9°
Sets 04:25:46 0° 26° (NNE) 3,655 9.9 -47.7°
